Satellite: NOAA-16
Catalog number: 26536
Epoch time:      11139.32018692
Element set:     301
Inclination:      099.1402 deg
RA of node:       169.2735 deg
Eccentricity:    0.0011455
Arg of perigee:   112.3802 deg
Mean anomaly:     247.8572 deg
Mean motion:   14.12617590 rev/day
Decay rate:      -1.10e-06 rev/day^2
Epoch rev:           54928
Checksum:              282

Satellite: NOAA-17
Catalog number: 27453
Epoch time:      11139.44350181
Element set:     294
Inclination:      098.3806 deg
RA of node:       180.4697 deg
Eccentricity:    0.0010925
Arg of perigee:   230.5348 deg
Mean anomaly:     129.4875 deg
Mean motion:   14.24272343 rev/day
Decay rate:       1.23e-06 rev/day^2
Epoch rev:           46256
Checksum:              303

Satellite: NOAA-18
Catalog number: 28654
Epoch time:      11139.46168584
Element set:     774
Inclination:      098.9941 deg
RA of node:       090.5419 deg
Eccentricity:    0.0014171
Arg of perigee:   182.3427 deg
Mean anomaly:     177.7671 deg
Mean motion:   14.11473892 rev/day
Decay rate:       -4.5e-07 rev/day^2
Epoch rev:           30887
Checksum:              341

Satellite: NOAA-19
Catalog number: 33591
Epoch time:      11139.45258566
Element set:     965
Inclination:      098.8257 deg
RA of node:       080.0921 deg
Eccentricity:    0.0014997
Arg of perigee:   059.5012 deg
Mean anomaly:     300.7622 deg
Mean motion:   14.11167686 rev/day
Decay rate:       4.03e-06 rev/day^2
Epoch rev:           11733
Checksum:              311

/EX
SB KEPS @ AMSAT  $ORB11139.M
Orbital Elements  11139.MISC

HR AMSAT ORBITAL ELEMENTS FOR MANNED AND MISCELLANEOUS SATELLITES
FROM WA5QGD FORT WORTH,TX May 19, 2011
Send Subscribe/unsubscribe to KEPS at http://www.amsat.org/mailman/listinfo/kep
BID: ORB11139.M
TO ALL RADIO AMATEURS BT

Satellite: HUBBLE
Catalog number: 20580
Epoch time:      11138.47037934
Element set:     767
Inclination:      028.4697 deg
RA of node:       210.5697 deg
Eccentricity:    0.0003782
Arg of perigee:   166.1084 deg
Mean anomaly:     193.9499 deg
Mean motion:   15.01357299 rev/day
Decay rate:       9.26e-06 rev/day^2
Epoch rev:           95518
Checksum:              338

Satellite: ISS
Catalog number: 25544
Epoch time:      11139.85304498
Element set:     384
Inclination:      051.6494 deg
RA of node:       306.1741 deg
Eccentricity:    0.0003396
Arg of perigee:   292.0861 deg
Mean anomaly:     209.4882 deg
Mean motion:   15.75273061 rev/day
Decay rate:     6.5323e-04 rev/day^2
Epoch rev:           71644
Checksum:              309

Satellite: CO-58
Catalog number: 28895
Epoch time:      11138.66630044
Element set:    0877
Inclination:      097.9699 deg
RA of node:       016.1900 deg
Eccentricity:    0.0016795
Arg of perigee:   316.3398 deg
Mean anomaly:     043.6490 deg
Mean motion:   14.60096761 rev/day
Decay rate:       4.85e-06 rev/day^2
Epoch rev:           29593
Checksum:              358

Satellite: FALCON
Catalog number: 30776
Epoch time:      11138.51510848
Element set:    0102
Inclination:      035.4324 deg
RA of node:       167.3906 deg
Eccentricity:    0.0001109
Arg of perigee:   231.7096 deg
Mean anomaly:     128.3522 deg
Mean motion:   15.04581626 rev/day
Decay rate:      1.582e-05 rev/day^2
Epoch rev:           23057
Checksum:              266

Satellite: MAST
Catalog number: 31126
Epoch time:      11138.92099533
Element set:    0162
Inclination:      097.8964 deg
RA of node:       167.7967 deg
Eccentricity:    0.0092949
Arg of perigee:   261.6267 deg
Mean anomaly:     097.4389 deg
Mean motion:   14.53742299 rev/day
Decay rate:       2.03e-06 rev/day^2
Epoch rev:           21683
Checksum:              345

Satellite: CAPE1
Catalog number: 31130
Epoch time:      11138.60434546
Element set:     178
Inclination:      097.9009 deg
RA of node:       164.3093 deg
Eccentricity:    0.0101298
Arg of perigee:   273.5097 deg
Mean anomaly:     085.4520 deg
Mean motion:   14.52382693 rev/day
Decay rate:       1.02e-06 rev/day^2
Epoch rev:           21634
Checksum:              280

Satellite: COMPASS
Catalog number: 32787
Epoch time:      11138.64636906
Element set:    0991
Inclination:      097.8494 deg
RA of node:       203.0096 deg
Eccentricity:    0.0014418
Arg of perigee:   273.6845 deg
Mean anomaly:     086.2722 deg
Mean motion:   14.82389739 rev/day
Decay rate:       7.55e-06 rev/day^2
Epoch rev:           16518
Checksum:              342

Satellite: AAUSAT2
Catalog number: 32788
Epoch time:      11138.68125120
Element set:    0980
Inclination:      097.8499 deg
RA of node:       203.2585 deg
Eccentricity:    0.0014132
Arg of perigee:   274.4829 deg
Mean anomaly:     085.4802 deg
Mean motion:   14.82574964 rev/day
Decay rate:      1.323e-05 rev/day^2
Epoch rev:           16520
Checksum:              312

Satellite: DO-64
Catalog number: 32789
Epoch time:      11138.76744715
Element set:    0999
Inclination:      097.8589 deg
RA of node:       204.2917 deg
Eccentricity:    0.0014136
Arg of perigee:   270.6767 deg
Mean anomaly:     089.2801 deg
Mean motion:   14.83017431 rev/day
Decay rate:      1.915e-05 rev/day^2
Epoch rev:           16522
Checksum:              343

